sat.trackr.live / text

‹ back to catalog

STARLINK-36402

NORAD 68966 · 2026-099R

PAYLOAD ACTIVE UNKNOWN

§ Identity

Operator
Country
US
Launch date
2026-05-01
Launch site
AFETR
Launch vehicle
Mass (kg)
RCS (m²)

Purposes: comms

External: N2YO · Heavens-Above · Gunter

§ Orbital elements

Epoch: 2026-05-25T04:00:03.998880Z

Period
92.26 min
Inclination
53.1594°
Eccentricity
0.0001102
Mean motion
15.60862443 rev/d
Perigee alt
384.4 km
Apogee alt
385.9 km
Semi-major
6,763.3 km
B*
-2.4980e-2
RAAN
270.1565°
Arg perigee
87.8849°
Mean anomaly
163.0619°
Rev number
501

§ Raw data

STARLINK-364021 68966U 26099R   26145.16671295 -.01882265  00000+0 -24980-1 0  99932 68966  53.1594 270.1565 0001102  87.8849 163.0619 15.60862443  5019

JSON: /api/v1/satellites/68966 · /tle

For live sub-satellite position, see the globe view (requires WebGL).

§ Visibility from observer

Set your observer location to see the next 7 days of passes ≥ 10°. The values pass through the URL so the page stays shareable.

No JS? Fill the form by hand. The geolocation button needs JavaScript.